Regional Weather Roundup
Issued by NWS

Current Version | Previous Version | Text Only | Print | Product List | Glossary On
Versions: 1 2 3 4 5 6 7 8 9 10 11 12 13 14 15 16 17 18 19 20 21 22 23 24 25 26 27 28 29 30 31 32 33 34 35 36 37 38 39 40 41 42 43 44 45 46 47 48 49 50
000
ASMX46 KSGX 290903
RWRMX

MEXICAN WEATHER ROUNDUP
NATIONAL WEATHER SERVICE SAN DIEGO CA
100 AM PST THU JAN 29 2015

BAJA CALIFORNIA

CITY           SKY/WX    TMP DP  RH WIND       PRES   REMARKS
TIJUANA        CLOUDY    61  45  55 CALM      30.07F

NORTHWESTERN MEXICO

CITY           SKY/WX    TMP DP  RH WIND       PRES   REMARKS

NORTHEASTERN MEXICO

CITY           SKY/WX    TMP DP  RH WIND       PRES   REMARKS
MONTERREY      CLEAR     54  46  76 W5        30.09F
REYNOSA        CLEAR     57  54  88 SE6       30.12F
VICTORIA       CLEAR     63  55  77 S17       30.11S

WESTERN MEXICO

CITY           SKY/WX    TMP DP  RH WIND       PRES   REMARKS
GUADALAJARA    CLEAR     50  39  66 CALM      30.18S
MAZATLAN       PTCLDY    61  57  88 CALM      29.89F
PTO. VALLARTA  CLOUDY    72  70  94 NE3       29.90F

CENTRAL MEXICO

CITY           SKY/WX    TMP DP  RH WIND       PRES   REMARKS
LEON           PTCLDY    50  34  53 E3        30.31
MEXICO CITY    CLEAR     48  36  61 E5        30.34F
MORELIA        CLEAR     45  37  76 CALM      30.24F
QUERETARO      CLEAR     46  37  71 E8        30.32F
S. LUIS POTOSI CLEAR     43  34  70 CALM      30.28S
TOLUCA         PTCLDY    37  32  81 CALM      30.38F
VERACRUZ       PTCLDY    59  55  88 NW5       30.14F

SOUTHERN MEXICO

CITY           SKY/WX    TMP DP  RH WIND       PRES   REMARKS
ACAPULCO       CLEAR     75  70  83 NW3       29.88F
TAPACHULA      CLEAR     72  70  94 CALM      29.86F

YUCATAN PENINSULA

CITY           SKY/WX    TMP DP  RH WIND       PRES   REMARKS
CANCUN         MOCLDY    70  59  68 NE7       30.10F
COZUMEL        PTCLDY    64  57  77 NE12      30.10F
MERIDA         CLEAR     64  57  77 E7        30.11F

$$



USA.gov is the U.S. government's official web portal to all federal, state and local government web resources and services.